Regional Weather Roundup
Issued by NWS

Home | Current Version | Previous Version | Text Only | Print | Product List | Glossary On
Versions: 1 2 3 4 5 6 7 8 9 10 11 12 13 14 15 16 17 18 19 20 21 22 23 24 25 26 27 28 29 30 31 32 33 34 35 36 37 38 39 40 41 42 43 44 45 46 47 48 49 50
000
ASUS43 KLSX 031957
RWRMO

WEATHER SUMMARY FOR MISSOURI
NATIONAL WEATHER SERVICE SPRINGFIELD MO
200 PM CST SAT DEC 03 2016

NOTE: "FAIR" INDICATES FEW OR NO CLOUDS BELOW 12,000 FEET WITH NO
       SIGNIFICANT WEATHER AND/OR OBSTRUCTIONS TO VISIBILITY.
       CURRENT SKY AND/OR WEATHER CONDITIONS ARE NOT AVAILABLE FOR
       CHILLICOTHE AND FARMINGTON.

MOZ001>031-035>038-043-044-053-054-032100-
...NORTHERN AND WESTERN MISSOURI...

CITY           SKY/WX    TMP DP  RH WIND       PRES   REMARKS
KANSAS CTY INT CLOUDY    44  30  57 E10       30.19F
LEE`S SUMMIT   CLOUDY    48  29  47 E9        30.19F
ST JOSEPH      CLOUDY    44  31  60 E8        30.20F
CHILLICOTHE      N/A     44  33  65 SE8       30.25F

$$
MOZ066>068-077>081-088>096-101>105-032100-
...SOUTHWEST MISSOURI...

CITY           SKY/WX    TMP DP  RH WIND       PRES   REMARKS
SPRINGFIELD    CLOUDY    47  30  51 SE16      30.18F
BRANSON        CLOUDY    41  36  81 SE10      30.20F

$$
MOZ032>034-039>042-045>050-055>058-069>072-032100-
...CENTRAL MISSOURI...

CITY           SKY/WX    TMP DP  RH WIND       PRES   REMARKS
COLUMBIA       NOT AVBL
JEFFERSON CITY MOSUNNY   46  31  55 SE7       30.26F
ROLLA          CLOUDY    44  32  62 SE9       30.23F
SEDALIA        CLOUDY    49  31  49 E9        30.22F
WARRENSBURG    MOSUNNY   50  30  46 E9        30.20F

$$
MOZ051-052-059>065-032100-
...EAST CENTRAL MISSOURI...

CITY           SKY/WX    TMP DP  RH WIND       PRES   REMARKS
ST LOUIS INTL  CLOUDY    45  30  55 SE6       30.30

$$
MOZ072>076-082>087-097>100-106>115-032100-
...SOUTH CENTRAL AND SOUTHEAST MISSOURI...

CITY           SKY/WX    TMP DP  RH WIND       PRES   REMARKS
CAPE GIRARDEAU CLOUDY    44  31  60 E7        30.30F
POPLAR BLUFF   CLOUDY    44  35  70 NE7       30.29F
WEST PLAINS    CLOUDY    43  31  62 SE7       30.26F

$$



USA.gov is the U.S. government's official web portal to all federal, state and local government web resources and services.